一网星座-0276星 (ONEWEB-0276 )

导读

ONEWEB-0276是英国OneWeb星座计划中的一颗低轨通信卫星,于2021年7月1日发射入轨,运行在约1200公里高度的近地轨道。作为OneWeb一期组网卫星之一,它采用弯管式架构设计,为全球提供高速低延迟互联网接入,服务航空、海运、应急通信等领域,助力缩小数字鸿沟。卫星寿命到期后会自动离轨,符合空间碎片减缓标准,是OneWeb构建全球卫星互联网的重要组成部分。

Basic Information
目录编号:
48994
目录名称:
ONEWEB-0276
国际标识:
2021-060AD
轨道中心:
EARTH
卫星名称:
一网星座-0276星
卫星全名:
一网星座-0276星 (ONEWEB-0276 )
卫星状态:
在轨 (已飞行1853 天)
发射日期:
2021-07-01 UTC
国别 :
英国 (GB)
星等 :
--
Orbit Information
数据来源 国际轨道数据 AOE轨道数据
星历时间 2026-07-27T10:02:32+0800
22小时前
查看轨道信息
2026-07-26T08:00:00+0800
2天前
查看轨道信息
半长轴 7575.893km 7575.908km
偏心率 0.0001876 0.0002133
轨道倾角 87.908° 87.909°
近地点辐角 93.736° 82.903°
升交点赤经 220.849° 221.066°
平近点角 266.399° 177.103°
近地点 1196.334km 1196.155km
远地点 1199.178km 1199.387km
周期 109.373分钟 109.373分钟
每日圈数 13.165945 13.165907
Detailed Information
平衡模式:
三轴稳定
覆盖范围:
全球
运营商:
一网卫星公司
运营商所在国:
英国
制造商(研发单位):
一网卫星公司
制造商所在国:
英国
使用方式:
暂无
Satellite Introduction
OneWeb卫星网络由648颗重约125公斤的微型卫星组成,运行在1200公里的轨道上。 每颗卫星都能够提供至少每秒8千兆位的吞吐量,以使用其高吞吐量的Ku频段有效载荷为家庭和移动平台提供互联网接入。该卫星仍在工作。
2D Orbit Map
3D Orbit Map
Orbit Altitude Analysis Chart
Orbit Inclination Analysis Chart
Orbit Comprehensive Analysis Chart
View Comprehensive Chart